TimePST,TemperatureF,Dew PointF,Humidity,Sea Level PressureIn,VisibilityMPH,Wind Direction,Wind SpeedMPH,Gust SpeedMPH,PrecipitationIn,Events,Conditions,WindDirDegrees,DateUTC
12:47 AM,54.0,48.9,83,30.10,9.0,Calm,Calm,-,N/A,,Clear,0,2013-03-05 08:47:00
1:37 AM,53.6,48.2,82,30.09,8.0,Calm,Calm,-,N/A,,Mostly Cloudy,0,2013-03-05 09:37:00
1:47 AM,53.1,48.9,86,30.09,8.0,Calm,Calm,-,N/A,,Mostly Cloudy,0,2013-03-05 09:47:00
2:47 AM,54.0,48.9,83,30.08,7.0,Calm,Calm,-,N/A,,Overcast,0,2013-03-05 10:47:00
3:47 AM,55.0,50.0,83,30.09,6.0,Calm,Calm,-,N/A,,Haze,0,2013-03-05 11:47:00
4:47 AM,55.0,48.9,80,30.09,6.0,Calm,Calm,-,N/A,,Haze,0,2013-03-05 12:47:00
5:47 AM,55.0,48.9,80,30.10,5.0,Calm,Calm,-,N/A,,Haze,0,2013-03-05 13:47:00
6:47 AM,55.9,50.0,80,30.09,5.0,Calm,Calm,-,N/A,,Haze,0,2013-03-05 14:47:00
7:47 AM,55.9,48.9,77,30.10,3.0,Calm,Calm,-,N/A,,Haze,0,2013-03-05 15:47:00
8:47 AM,57.0,48.9,74,30.11,4.0,Calm,Calm,-,N/A,,Haze,0,2013-03-05 16:47:00
9:39 AM,57.2,48.2,72,30.11,5.0,Calm,Calm,-,N/A,,Haze,0,2013-03-05 17:39:00
9:47 AM,57.0,48.9,74,30.12,5.0,Calm,Calm,-,N/A,,Haze,0,2013-03-05 17:47:00
10:47 AM,59.0,48.9,69,30.11,5.0,Calm,Calm,-,N/A,,Haze,0,2013-03-05 18:47:00
11:47 AM,59.0,50.0,72,30.09,5.0,Variable,4.6,-,N/A,,Haze,0,2013-03-05 19:47:00
12:47 PM,62.1,50.0,65,30.07,5.0,Calm,Calm,-,N/A,,Haze,0,2013-03-05 20:47:00
1:04 PM,62.6,48.2,59,30.06,5.0,Calm,Calm,-,N/A,,Haze,0,2013-03-05 21:04:00
1:22 PM,62.6,48.2,59,30.05,5.0,Variable,3.5,-,N/A,,Haze,0,2013-03-05 21:22:00
1:47 PM,64.0,48.0,56,30.04,6.0,Variable,3.5,-,N/A,,Haze,0,2013-03-05 21:47:00
1:54 PM,64.4,48.2,56,30.04,7.0,Calm,Calm,-,N/A,,Scattered Clouds,0,2013-03-05 21:54:00
2:06 PM,64.4,48.2,56,30.04,6.0,Variable,3.5,-,N/A,,Haze,0,2013-03-05 22:06:00
2:47 PM,61.0,48.9,64,30.04,9.0,Variable,4.6,-,N/A,,Overcast,0,2013-03-05 22:47:00
3:47 PM,57.9,48.9,72,30.04,10.0,Variable,3.5,-,N/A,,Overcast,0,2013-03-05 23:47:00
4:47 PM,55.9,48.9,77,30.04,10.0,Calm,Calm,-,N/A,,Overcast,0,2013-03-06 00:47:00
5:47 PM,55.9,48.0,75,30.06,10.0,Calm,Calm,-,N/A,,Overcast,0,2013-03-06 01:47:00
6:47 PM,55.0,48.0,77,30.07,10.0,Calm,Calm,-,N/A,,Mostly Cloudy,0,2013-03-06 02:47:00
7:03 PM,55.4,48.2,77,30.07,10.0,Calm,Calm,-,N/A,,Scattered Clouds,0,2013-03-06 03:03:00
7:47 PM,55.0,46.9,74,30.07,10.0,Calm,Calm,-,N/A,,Overcast,0,2013-03-06 03:47:00
8:47 PM,55.9,46.0,69,30.09,10.0,Calm,Calm,-,N/A,,Overcast,0,2013-03-06 04:47:00
9:47 PM,55.0,48.0,77,30.11,10.0,Calm,Calm,-,N/A,,Overcast,0,2013-03-06 05:47:00
9:55 PM,55.4,46.4,72,30.10,10.0,Calm,Calm,-,N/A,,Overcast,0,2013-03-06 05:55:00
10:04 PM,53.6,46.4,77,30.11,10.0,Variable,4.6,-,N/A,,Overcast,0,2013-03-06 06:04:00
10:34 PM,53.6,46.4,77,30.11,10.0,West,6.9,-,N/A,,Overcast,260,2013-03-06 06:34:00
10:47 PM,54.0,46.0,75,30.12,10.0,Variable,3.5,-,N/A,,Overcast,0,2013-03-06 06:47:00
11:47 PM,53.1,44.1,71,30.13,10.0,Variable,3.5,-,N/A,,Overcast,0,2013-03-06 07:47:00